Stündliche Wetter Barlovo

Heute, 21 Oktober, Mittwoch

Zeit Temperatur Niederschläge Wind Luftdruck Luftfeuchtigkeit
00:00 -1°C° 0 mm 2 m/S 748 mmHg 86%
01:00 +1°C° 0 mm 2 m/S 748 mmHg 85%
02:00 +1°C° 0 mm 2 m/S 748 mmHg 85%
03:00 +1°C° 0 mm 2 m/S 748 mmHg 86%
04:00 +1°C° 0 mm 2 m/S 748 mmHg 87%
05:00 +2°C° 0 mm 2 m/S 748 mmHg 88%
06:00 +2°C° 0.1 mm 2 m/S 747 mmHg 90%
07:00 +2°C° 0.1 mm 2 m/S 747 mmHg 92%
08:00 +1°C° 0.1 mm 3 m/S 747 mmHg 94%
09:00 +1°C° 0.3 mm 3 m/S 746 mmHg 94%
10:00 +2°C° 0.3 mm 3 m/S 746 mmHg 95%
11:00 +2°C° 0.3 mm 3 m/S 746 mmHg 95%
12:00 +2°C° 0.4 mm 3 m/S 745 mmHg 96%
13:00 +2°C° 0.4 mm 3 m/S 745 mmHg 96%
14:00 +3°C° 0.4 mm 2 m/S 745 mmHg 96%
15:00 +4°C° 0 mm 2 m/S 744 mmHg 96%
16:00 +4°C° 0 mm 2 m/S 744 mmHg 96%
17:00 +4°C° 0 mm 2 m/S 743 mmHg 96%
18:00 +4°C° 0 mm 2 m/S 743 mmHg 96%
19:00 +4°C° 0 mm 2 m/S 744 mmHg 96%
20:00 +4°C° 0 mm 2 m/S 744 mmHg 97%
21:00 +4°C° 0 mm 2 m/S 744 mmHg 97%
22:00 +4°C° 0 mm 2 m/S 743 mmHg 98%
23:00 +5°C° 0 mm 1 m/S 743 mmHg 98%

Morgen, 22 Oktober, Donnerstag

Zeit Temperatur Niederschläge Wind Luftdruck Luftfeuchtigkeit
00:00 +5°C° 0 mm 1 m/S 743 mmHg 98%
01:00 +4°C° 0 mm 2 m/S 744 mmHg 97%
02:00 +5°C° 0 mm 2 m/S 744 mmHg 97%
03:00 +5°C° 0 mm 2 m/S 743 mmHg 97%
04:00 +5°C° 0 mm 2 m/S 743 mmHg 96%
05:00 +5°C° 0 mm 2 m/S 742 mmHg 96%
06:00 +4°C° 0 mm 3 m/S 742 mmHg 95%
07:00 +4°C° 0 mm 3 m/S 742 mmHg 94%
08:00 +4°C° 0 mm 3 m/S 741 mmHg 93%
09:00 +5°C° 1.3 mm 4 m/S 741 mmHg 93%
10:00 +5°C° 1.3 mm 4 m/S 740 mmHg 93%
11:00 +5°C° 1.3 mm 4 m/S 739 mmHg 94%
12:00 +5°C° 0.4 mm 4 m/S 739 mmHg 93%
13:00 +6°C° 0.4 mm 4 m/S 738 mmHg 93%
14:00 +6°C° 0.4 mm 4 m/S 738 mmHg 92%
15:00 +7°C° 0.1 mm 4 m/S 737 mmHg 91%
16:00 +8°C° 0.1 mm 4 m/S 736 mmHg 91%
17:00 +8°C° 0.1 mm 4 m/S 736 mmHg 90%
18:00 +10°C° 0.2 mm 4 m/S 736 mmHg 89%
19:00 +9°C° 0.2 mm 5 m/S 735 mmHg 88%
20:00 +10°C° 0.2 mm 5 m/S 735 mmHg 87%
21:00 +10°C° 0 mm 5 m/S 735 mmHg 86%
22:00 +10°C° 0 mm 6 m/S 735 mmHg 85%
23:00 +11°C° 0 mm 6 m/S 736 mmHg 84%

übermorgen, 23 Oktober, Freitag

Zeit Temperatur Niederschläge Wind Luftdruck Luftfeuchtigkeit
00:00 +10°C° 0 mm 6 m/S 736 mmHg 84%
01:00 +10°C° 0 mm 5 m/S 737 mmHg 84%
02:00 +10°C° 0 mm 5 m/S 737 mmHg 84%
03:00 +10°C° 0 mm 5 m/S 737 mmHg 85%
04:00 +10°C° 0 mm 5 m/S 737 mmHg 86%
05:00 +11°C° 0 mm 4 m/S 738 mmHg 86%
06:00 +11°C° 0 mm 4 m/S 737 mmHg 87%
07:00 +11°C° 0 mm 4 m/S 737 mmHg 88%
08:00 +11°C° 0 mm 4 m/S 737 mmHg 89%
09:00 +11°C° 0 mm 4 m/S 737 mmHg 87%
10:00 +11°C° 0 mm 4 m/S 737 mmHg 85%
11:00 +12°C° 0 mm 4 m/S 737 mmHg 83%
12:00 +11°C° 1.6 mm 4 m/S 736 mmHg 87%
13:00 +11°C° 1.6 mm 3 m/S 736 mmHg 92%
14:00 +11°C° 1.6 mm 3 m/S 735 mmHg 96%
15:00 +11°C° 1.1 mm 3 m/S 735 mmHg 94%
16:00 +11°C° 1.1 mm 3 m/S 734 mmHg 92%
17:00 +11°C° 1.1 mm 4 m/S 734 mmHg 91%
18:00 +11°C° 0.3 mm 4 m/S 734 mmHg 90%
19:00 +10°C° 0.3 mm 5 m/S 735 mmHg 88%
20:00 +10°C° 0.3 mm 5 m/S 735 mmHg 87%
21:00 +9°C° 0.1 mm 5 m/S 735 mmHg 87%
22:00 +10°C° 0.1 mm 4 m/S 735 mmHg 88%
23:00 +8°C° 0.1 mm 4 m/S 735 mmHg 88%

24 Oktober, Samstag

Zeit Temperatur Niederschläge Wind Luftdruck Luftfeuchtigkeit
00:00 +8°C° 0 mm 4 m/S 736 mmHg 87%
01:00 +8°C° 0 mm 4 m/S 736 mmHg 86%
02:00 +8°C° 0 mm 4 m/S 736 mmHg 86%
03:00 +7°C° 0 mm 4 m/S 737 mmHg 87%
04:00 +7°C° 0 mm 4 m/S 737 mmHg 88%
05:00 +7°C° 0 mm 4 m/S 737 mmHg 89%
06:00 +7°C° 0 mm 4 m/S 737 mmHg 89%
07:00 +7°C° 0 mm 3 m/S 737 mmHg 89%
08:00 +7°C° 0 mm 3 m/S 738 mmHg 89%
09:00 +8°C° 0 mm 3 m/S 738 mmHg 87%
10:00 +8°C° 0 mm 3 m/S 738 mmHg 85%
11:00 +8°C° 0 mm 3 m/S 739 mmHg 84%
12:00 +8°C° 0 mm 3 m/S 739 mmHg 83%
13:00 +8°C° 0 mm 2 m/S 739 mmHg 82%
14:00 +8°C° 0 mm 2 m/S 738 mmHg 82%
15:00 +8°C° 0 mm 2 m/S 738 mmHg 84%
16:00 +9°C° 0 mm 1 m/S 738 mmHg 87%
17:00 +9°C° 0 mm 1 m/S 738 mmHg 89%
18:00 +8°C° 0 mm 1 m/S 738 mmHg 91%
19:00 +8°C° 0 mm 1 m/S 737 mmHg 93%
20:00 +7°C° 0 mm 1 m/S 737 mmHg 95%
21:00 +6°C° 0.1 mm 2 m/S 737 mmHg 95%
22:00 +6°C° 0.1 mm 2 m/S 736 mmHg 94%
23:00 +7°C° 0.1 mm 2 m/S 736 mmHg 94%

25 Oktober, Sonntag

Zeit Temperatur Niederschläge Wind Luftdruck Luftfeuchtigkeit
00:00 +7°C° 0.6 mm 3 m/S 736 mmHg 93%
01:00 +7°C° 0.6 mm 3 m/S 735 mmHg 93%
02:00 +7°C° 0.6 mm 3 m/S 735 mmHg 92%
03:00 +6°C° 1.2 mm 4 m/S 735 mmHg 92%
04:00 +6°C° 1.2 mm 4 m/S 735 mmHg 93%
05:00 +6°C° 1.2 mm 4 m/S 735 mmHg 93%
06:00 +6°C° 1.5 mm 4 m/S 735 mmHg 93%
07:00 +6°C° 1.5 mm 4 m/S 735 mmHg 93%
08:00 +6°C° 1.5 mm 4 m/S 735 mmHg 93%
09:00 +6°C° 1.4 mm 4 m/S 736 mmHg 93%
10:00 +5°C° 1.4 mm 4 m/S 736 mmHg 92%
11:00 +5°C° 1.4 mm 4 m/S 737 mmHg 92%
12:00 +6°C° 0.1 mm 4 m/S 737 mmHg 90%
13:00 +6°C° 0.1 mm 4 m/S 737 mmHg 88%
14:00 +6°C° 0.1 mm 4 m/S 738 mmHg 86%
15:00 +7°C° 0 mm 3 m/S 739 mmHg 87%
16:00 +7°C° 0 mm 3 m/S 739 mmHg 88%
17:00 +5°C° 0 mm 3 m/S 740 mmHg 89%
18:00 +5°C° 0 mm 3 m/S 741 mmHg 89%
19:00 +5°C° 0 mm 3 m/S 741 mmHg 89%
20:00 +5°C° 0 mm 3 m/S 742 mmHg 89%
21:00 +5°C° 0 mm 2 m/S 742 mmHg 91%
22:00 +5°C° 0 mm 2 m/S 743 mmHg 93%
23:00 +4°C° 0 mm 2 m/S 743 mmHg 95%

26 Oktober, Montag

Zeit Temperatur Niederschläge Wind Luftdruck Luftfeuchtigkeit
00:00 +4°C° 0 mm 2 m/S 743 mmHg 95%
01:00 +4°C° 0 mm 2 m/S 744 mmHg 95%
02:00 +3°C° 0 mm 2 m/S 744 mmHg 96%
03:00 +3°C° 0 mm 2 m/S 745 mmHg 96%
04:00 +4°C° 0 mm 1 m/S 745 mmHg 96%
05:00 +4°C° 0 mm 1 m/S 746 mmHg 96%
06:00 +5°C° 0 mm 1 m/S 746 mmHg 96%
07:00 +5°C° 0 mm 1 m/S 747 mmHg 96%
08:00 +6°C° 0 mm 1 m/S 747 mmHg 96%
09:00 +7°C° 0 mm 1 m/S 747 mmHg 92%
10:00 +8°C° 0 mm 1 m/S 748 mmHg 88%
11:00 +8°C° 0 mm 1 m/S 748 mmHg 84%
12:00 +9°C° 0 mm 1 m/S 748 mmHg 82%
13:00 +9°C° 0 mm 1 m/S 749 mmHg 80%
14:00 +8°C° 0 mm 0 m/S 749 mmHg 78%
15:00 +7°C° 0 mm 0 m/S 749 mmHg 81%
16:00 +7°C° 0 mm 0 m/S 749 mmHg 84%
17:00 +6°C° 0 mm 0 m/S 750 mmHg 88%
18:00 +5°C° 0 mm 0 m/S 750 mmHg 89%
19:00 +5°C° 0 mm 0 m/S 750 mmHg 90%
20:00 +4°C° 0 mm 0 m/S 751 mmHg 92%
21:00 +4°C° 0 mm 0 m/S 751 mmHg 92%
22:00 +5°C° 0 mm 1 m/S 751 mmHg 93%
23:00 +5°C° 0 mm 1 m/S 751 mmHg 93%

27 Oktober, Dienstag

Zeit Temperatur Niederschläge Wind Luftdruck Luftfeuchtigkeit
00:00 +5°C° 0 mm 1 m/S 752 mmHg 94%
01:00 +4°C° 0 mm 1 m/S 752 mmHg 94%
02:00 +4°C° 0 mm 1 m/S 752 mmHg 95%
03:00 +4°C° 0 mm 1 m/S 752 mmHg 95%
04:00 +4°C° 0 mm 1 m/S 752 mmHg 95%
05:00 +4°C° 0 mm 1 m/S 752 mmHg 96%
06:00 +3°C° 0 mm 2 m/S 753 mmHg 95%
07:00 +3°C° 0 mm 2 m/S 753 mmHg 95%
08:00 +3°C° 0 mm 2 m/S 753 mmHg 95%
09:00 +4°C° 0 mm 2 m/S 753 mmHg 89%
10:00 +6°C° 0 mm 2 m/S 753 mmHg 83%
11:00 +7°C° 0 mm 3 m/S 753 mmHg 77%
12:00 +7°C° 0 mm 3 m/S 753 mmHg 74%
13:00 +8°C° 0 mm 3 m/S 752 mmHg 72%
14:00 +8°C° 0 mm 3 m/S 752 mmHg 70%
15:00 +7°C° 0 mm 3 m/S 752 mmHg 75%
16:00 +5°C° 0 mm 3 m/S 752 mmHg 80%
17:00 +4°C° 0 mm 3 m/S 752 mmHg 84%
18:00 +4°C° 0 mm 3 m/S 752 mmHg 85%
19:00 +3°C° 0 mm 3 m/S 752 mmHg 87%
20:00 +3°C° 0 mm 3 m/S 752 mmHg 88%
21:00 +3°C° 0 mm 3 m/S 752 mmHg 88%
22:00 +2°C° 0 mm 3 m/S 752 mmHg 89%
23:00 +2°C° 0 mm 3 m/S 752 mmHg 89%
Mehr zeigen